2017-008U

Last updated on Tue Feb 28 2017 00:15:03 GMT+0000 (Coordinated Universal Time)

1 41966U 17008U 17058.70113486 .00001711 00000-0 79365-4 0 9997 2 41966 97.5106 120.3052 0008222 208.4913 151.5825 15.21419366 1725
UTC large
Height (km)
Speed (km/s)
/
Latitude / Longitude
Inclination (degrees)
Orbital Period (minutes)
Azimuth
Elevation
Range (km)
Doppler Factor

Next 0 passes for location: London (51.5072 / 0.1276)

Sorry there are no passes over London.